Time,TemperatureF,DewpointF,PressureIn,WindDirection,WindDirectionDegrees,WindSpeedMPH,WindSpeedGustMPH,Humidity,HourlyPrecipIn,Conditions,Clouds,dailyrainin,SoftwareType,DateUTC
2013-09-19 00:06:00,47.3,15.0,30.06,NNW,330,0.0,0.0,27,0.00,,,0.00,VWS V14.01,2013-09-19 07:06:00,
2013-09-19 00:11:00,47.1,14.9,30.06,NNW,330,0.0,0.0,27,0.00,,,0.00,VWS V14.01,2013-09-19 07:11:00,
2013-09-19 00:17:00,46.8,14.6,30.06,NNW,330,0.0,0.0,27,0.00,,,0.00,VWS V14.01,2013-09-19 07:17:00,
2013-09-19 00:23:00,46.6,14.4,30.06,NNW,330,0.0,0.0,27,0.00,,,0.00,VWS V14.01,2013-09-19 07:23:00,
2013-09-19 00:28:00,46.6,14.4,30.06,NNW,330,0.0,0.0,27,0.00,,,0.00,VWS V14.01,2013-09-19 07:28:00,
2013-09-19 00:33:00,46.4,14.2,30.06,NNW,330,0.0,0.0,27,0.00,,,0.00,VWS V14.01,2013-09-19 07:33:00,
2013-09-19 00:39:00,46.4,14.2,30.06,NNW,330,0.0,0.0,27,0.00,,,0.00,VWS V14.01,2013-09-19 07:39:00,
2013-09-19 00:45:00,46.4,14.2,30.06,NNW,330,0.0,0.0,27,0.00,,,0.00,VWS V14.01,2013-09-19 07:45:00,
2013-09-19 00:51:00,46.2,14.9,30.06,NNW,330,0.0,0.0,28,0.00,,,0.00,VWS V14.01,2013-09-19 07:51:00,
2013-09-19 00:56:00,46.2,14.9,30.06,NNW,330,0.0,0.0,28,0.00,,,0.00,VWS V14.01,2013-09-19 07:56:00,
2013-09-19 01:02:00,46.0,14.8,30.06,NNW,330,0.0,0.0,28,0.00,,,0.00,VWS V14.01,2013-09-19 08:02:00,
2013-09-19 01:08:00,46.0,14.8,30.06,NNW,330,0.0,0.0,28,0.00,,,0.00,VWS V14.01,2013-09-19 08:08:00,
2013-09-19 01:13:00,46.0,14.8,30.06,NNW,330,0.0,0.0,28,0.00,,,0.00,VWS V14.01,2013-09-19 08:13:00,
2013-09-19 01:18:00,46.0,14.8,30.06,NNW,330,0.0,0.0,28,0.00,,,0.00,VWS V14.01,2013-09-19 08:18:00,
2013-09-19 01:23:00,46.0,14.8,30.06,NNW,330,0.0,0.0,28,0.00,,,0.00,VWS V14.01,2013-09-19 08:23:00,
2013-09-19 01:29:00,45.9,14.6,30.06,NNW,330,0.0,0.0,28,0.00,,,0.00,VWS V14.01,2013-09-19 08:29:00,
2013-09-19 01:35:00,45.9,14.6,30.06,NNW,330,0.0,0.0,28,0.00,,,0.00,VWS V14.01,2013-09-19 08:35:00,
2013-09-19 01:40:00,45.9,14.6,30.06,NNW,330,0.0,0.0,28,0.00,,,0.00,VWS V14.01,2013-09-19 08:40:00,
2013-09-19 01:46:00,45.7,14.5,30.06,NNW,330,0.0,0.0,28,0.00,,,0.00,VWS V14.01,2013-09-19 08:46:00,
2013-09-19 01:51:00,45.5,14.3,30.06,NNW,330,0.0,0.0,28,0.00,,,0.00,VWS V14.01,2013-09-19 08:51:00,
2013-09-19 01:56:00,45.5,14.3,30.06,NNW,330,0.0,0.0,28,0.00,,,0.00,VWS V14.01,2013-09-19 08:56:00,
2013-09-19 02:01:00,45.3,14.1,30.06,NNW,330,0.0,0.0,28,0.00,,,0.00,VWS V14.01,2013-09-19 09:01:00,
2013-09-19 02:07:00,45.3,14.1,30.06,NNW,330,0.0,0.0,28,0.00,,,0.00,VWS V14.01,2013-09-19 09:07:00,
2013-09-19 02:12:00,45.1,14.0,30.06,NNW,330,0.0,0.0,28,0.00,,,0.00,VWS V14.01,2013-09-19 09:12:00,
2013-09-19 02:18:00,45.0,13.8,30.06,NNW,330,0.0,0.0,28,0.00,,,0.00,VWS V14.01,2013-09-19 09:18:00,
2013-09-19 02:24:00,45.0,13.8,30.06,NNW,330,0.0,0.0,28,0.00,,,0.00,VWS V14.01,2013-09-19 09:24:00,
2013-09-19 02:29:00,44.8,13.7,30.06,NNW,330,0.0,0.0,28,0.00,,,0.00,VWS V14.01,2013-09-19 09:29:00,
2013-09-19 02:34:00,44.8,13.7,30.06,NNW,330,0.0,0.0,28,0.00,,,0.00,VWS V14.01,2013-09-19 09:34:00,
2013-09-19 02:39:00,44.6,13.5,30.06,NNW,330,0.0,0.0,28,0.00,,,0.00,VWS V14.01,2013-09-19 09:39:00,
2013-09-19 02:45:00,44.4,13.4,30.06,NNW,330,0.0,0.0,28,0.00,,,0.00,VWS V14.01,2013-09-19 09:45:00,
2013-09-19 02:51:00,44.2,13.2,30.06,NNW,330,0.0,0.0,28,0.00,,,0.00,VWS V14.01,2013-09-19 09:51:00,
2013-09-19 02:57:00,44.2,13.2,30.06,NNW,330,0.0,0.0,28,0.00,,,0.00,VWS V14.01,2013-09-19 09:57:00,
2013-09-19 03:02:00,44.1,13.1,30.06,NNW,330,0.0,0.0,28,0.00,,,0.00,VWS V14.01,2013-09-19 10:02:00,
2013-09-19 03:07:00,44.1,13.1,30.06,NNW,330,0.0,0.0,28,0.00,,,0.00,VWS V14.01,2013-09-19 10:07:00,
2013-09-19 03:12:00,43.9,12.9,30.06,NNW,330,0.0,0.0,28,0.00,,,0.00,VWS V14.01,2013-09-19 10:12:00,
2013-09-19 03:17:00,43.9,12.9,30.06,NNW,330,0.0,0.0,28,0.00,,,0.00,VWS V14.01,2013-09-19 10:17:00,
2013-09-19 03:22:00,43.7,12.8,30.06,NNW,330,0.0,0.0,28,0.00,,,0.00,VWS V14.01,2013-09-19 10:22:00,
2013-09-19 03:28:00,43.5,12.6,30.06,NNW,330,0.0,0.0,28,0.00,,,0.00,VWS V14.01,2013-09-19 10:28:00,
2013-09-19 03:33:00,43.5,12.6,30.06,NNW,330,0.0,0.0,28,0.00,,,0.00,VWS V14.01,2013-09-19 10:33:00,
2013-09-19 03:38:00,43.3,12.4,30.06,NNW,330,0.0,0.0,28,0.00,,,0.00,VWS V14.01,2013-09-19 10:38:00,
2013-09-19 03:43:00,43.3,12.4,30.06,NNW,330,0.0,0.0,28,0.00,,,0.00,VWS V14.01,2013-09-19 10:43:00,
2013-09-19 03:49:00,43.3,12.4,30.06,NNW,330,0.0,0.0,28,0.00,,,0.00,VWS V14.01,2013-09-19 10:49:00,
2013-09-19 03:55:00,43.2,12.3,30.06,NNW,330,0.0,0.0,28,0.00,,,0.00,VWS V14.01,2013-09-19 10:55:00,
2013-09-19 04:00:00,43.0,12.1,30.06,NNW,330,0.0,0.0,28,0.00,,,0.00,VWS V14.01,2013-09-19 11:00:00,
2013-09-19 04:06:00,43.0,12.1,30.06,NNW,330,0.0,0.0,28,0.00,,,0.00,VWS V14.01,2013-09-19 11:06:00,
2013-09-19 04:12:00,43.0,12.1,30.06,NNW,330,0.0,0.0,28,0.00,,,0.00,VWS V14.01,2013-09-19 11:12:00,
2013-09-19 04:18:00,42.8,12.0,30.06,NNW,330,0.0,0.0,28,0.00,,,0.00,VWS V14.01,2013-09-19 11:18:00,
2013-09-19 04:23:00,42.8,12.0,30.06,NNW,330,0.0,0.0,28,0.00,,,0.00,VWS V14.01,2013-09-19 11:23:00,
2013-09-19 04:29:00,42.8,12.0,30.06,NNW,330,0.0,0.0,28,0.00,,,0.00,VWS V14.01,2013-09-19 11:29:00,
2013-09-19 04:35:00,42.8,12.0,30.06,NNW,330,0.0,0.0,28,0.00,,,0.00,VWS V14.01,2013-09-19 11:35:00,
2013-09-19 04:40:00,43.0,12.1,30.06,NNW,330,0.0,0.0,28,0.00,,,0.00,VWS V14.01,2013-09-19 11:40:00,
2013-09-19 04:46:00,43.0,12.1,30.06,NNW,330,0.0,0.0,28,0.00,,,0.00,VWS V14.01,2013-09-19 11:46:00,
2013-09-19 04:52:00,43.0,12.1,30.06,NNW,330,0.0,0.0,28,0.00,,,0.00,VWS V14.01,2013-09-19 11:52:00,
2013-09-19 04:57:00,43.0,12.1,30.06,NNW,330,0.0,0.0,28,0.00,,,0.00,VWS V14.01,2013-09-19 11:57:00,
2013-09-19 05:02:00,42.8,12.0,30.06,NNW,330,0.0,0.0,28,0.00,,,0.00,VWS V14.01,2013-09-19 12:02:00,
2013-09-19 05:08:00,42.6,11.8,30.06,NNW,330,0.0,0.0,28,0.00,,,0.00,VWS V14.01,2013-09-19 12:08:00,
2013-09-19 05:14:00,42.4,11.7,30.06,NNW,330,0.0,0.0,28,0.00,,,0.00,VWS V14.01,2013-09-19 12:14:00,
2013-09-19 05:20:00,42.4,11.7,30.06,NNW,330,0.0,0.0,28,0.00,,,0.00,VWS V14.01,2013-09-19 12:20:00,
2013-09-19 05:26:00,42.3,11.5,30.06,NNW,330,0.0,0.0,28,0.00,,,0.00,VWS V14.01,2013-09-19 12:26:00,
2013-09-19 05:31:00,42.3,11.5,30.06,NNW,330,0.0,0.0,28,0.00,,,0.00,VWS V14.01,2013-09-19 12:31:00,
2013-09-19 05:36:00,42.1,11.3,30.06,NNW,330,0.0,0.0,28,0.00,,,0.00,VWS V14.01,2013-09-19 12:36:00,
2013-09-19 05:42:00,42.1,11.3,30.06,NNW,330,0.0,0.0,28,0.00,,,0.00,VWS V14.01,2013-09-19 12:42:00,
2013-09-19 05:48:00,41.9,11.2,30.06,NNW,330,0.0,0.0,28,0.00,,,0.00,VWS V14.01,2013-09-19 12:48:00,
2013-09-19 05:53:00,41.9,11.2,30.06,NNW,330,0.0,0.0,28,0.00,,,0.00,VWS V14.01,2013-09-19 12:53:00,
2013-09-19 05:58:00,41.9,11.2,30.06,NNW,330,0.0,0.0,28,0.00,,,0.00,VWS V14.01,2013-09-19 12:58:00,
2013-09-19 06:03:00,42.1,11.3,30.06,NNW,330,0.0,0.0,28,0.00,,,0.00,VWS V14.01,2013-09-19 13:03:00,
2013-09-19 06:08:00,42.3,11.5,30.06,NNW,330,0.0,0.0,28,0.00,,,0.00,VWS V14.01,2013-09-19 13:08:00,
2013-09-19 06:14:00,42.3,11.5,30.06,NNW,330,0.0,0.0,28,0.00,,,0.00,VWS V14.01,2013-09-19 13:14:00,
2013-09-19 06:20:00,42.3,11.5,30.06,NNW,330,0.0,0.0,28,0.00,,,0.00,VWS V14.01,2013-09-19 13:20:00,
2013-09-19 06:25:00,42.3,11.5,30.06,NNW,330,0.0,0.0,28,0.00,,,0.00,VWS V14.01,2013-09-19 13:25:00,
2013-09-19 06:30:00,42.1,11.3,30.06,NNW,330,0.0,0.0,28,0.00,,,0.00,VWS V14.01,2013-09-19 13:30:00,
2013-09-19 06:36:00,41.7,11.0,30.06,NNW,330,0.0,0.0,28,0.00,,,0.00,VWS V14.01,2013-09-19 13:36:00,
2013-09-19 06:41:00,41.7,11.0,30.06,NNW,330,0.0,0.0,28,0.00,,,0.00,VWS V14.01,2013-09-19 13:41:00,
2013-09-19 06:46:00,41.5,10.9,30.06,NNW,330,0.0,0.0,28,0.00,,,0.00,VWS V14.01,2013-09-19 13:46:00,
2013-09-19 06:52:00,41.4,10.7,30.06,NNW,330,0.0,0.0,28,0.00,,,0.00,VWS V14.01,2013-09-19 13:52:00,
2013-09-19 06:58:00,41.4,10.7,30.06,NNW,330,0.0,0.0,28,0.00,,,0.00,VWS V14.01,2013-09-19 13:58:00,
2013-09-19 07:03:00,41.4,10.7,30.06,NNW,330,0.0,0.0,28,0.00,,,0.00,VWS V14.01,2013-09-19 14:03:00,
2013-09-19 07:08:00,41.4,10.7,30.06,NNW,330,0.0,0.0,28,0.00,,,0.00,VWS V14.01,2013-09-19 14:08:00,
2013-09-19 07:13:00,41.2,10.6,30.06,NNW,330,0.0,0.0,28,0.00,,,0.00,VWS V14.01,2013-09-19 14:13:00,
2013-09-19 07:19:00,41.2,10.6,30.06,NNW,330,0.0,0.0,28,0.00,,,0.00,VWS V14.01,2013-09-19 14:19:00,
2013-09-19 07:24:00,41.4,10.7,30.06,NNW,330,0.0,0.0,28,0.00,,,0.00,VWS V14.01,2013-09-19 14:24:00,
2013-09-19 07:29:00,41.5,10.9,30.06,NNW,330,0.0,0.0,28,0.00,,,0.00,VWS V14.01,2013-09-19 14:29:00,
2013-09-19 07:34:00,41.5,10.9,30.06,NNW,330,0.0,0.0,28,0.00,,,0.00,VWS V14.01,2013-09-19 14:34:00,
2013-09-19 07:40:00,41.5,10.9,30.06,NNW,330,0.0,0.0,28,0.00,,,0.00,VWS V14.01,2013-09-19 14:40:00,
2013-09-19 07:45:00,41.5,10.9,30.06,NNW,330,0.0,0.0,28,0.00,,,0.00,VWS V14.01,2013-09-19 14:45:00,
2013-09-19 07:50:00,41.7,11.0,30.06,NNW,330,0.0,0.0,28,0.00,,,0.00,VWS V14.01,2013-09-19 14:50:00,
2013-09-19 07:55:00,41.9,11.2,30.06,NNW,330,0.0,0.0,28,0.00,,,0.00,VWS V14.01,2013-09-19 14:55:00,
2013-09-19 08:01:00,42.1,11.3,30.06,NNW,330,0.0,0.0,28,0.00,,,0.00,VWS V14.01,2013-09-19 15:01:00,
2013-09-19 08:07:00,42.4,11.7,30.06,NNW,330,0.0,0.0,28,0.00,,,0.00,VWS V14.01,2013-09-19 15:07:00,
2013-09-19 08:12:00,42.6,11.8,30.06,NNW,330,0.0,0.0,28,0.00,,,0.00,VWS V14.01,2013-09-19 15:12:00,
2013-09-19 08:17:00,43.0,12.1,30.06,NNW,330,0.0,0.0,28,0.00,,,0.00,VWS V14.01,2013-09-19 15:17:00,
2013-09-19 08:22:00,43.3,12.4,30.06,NNW,330,0.0,0.0,28,0.00,,,0.00,VWS V14.01,2013-09-19 15:22:00,
2013-09-19 08:27:00,43.5,12.6,30.06,NNW,330,0.0,0.0,28,0.00,,,0.00,VWS V14.01,2013-09-19 15:27:00,
2013-09-19 08:33:00,44.1,13.1,30.06,NNW,330,0.0,0.0,28,0.00,,,0.00,VWS V14.01,2013-09-19 15:33:00,
2013-09-19 08:39:00,44.2,13.2,30.06,NNW,330,0.0,0.0,28,0.00,,,0.00,VWS V14.01,2013-09-19 15:39:00,
2013-09-19 08:45:00,44.6,13.5,30.06,NNW,330,0.0,0.0,28,0.00,,,0.00,VWS V14.01,2013-09-19 15:45:00,
2013-09-19 08:51:00,45.0,13.8,30.06,ENE,60,0.0,0.0,28,0.00,,,0.00,VWS V14.01,2013-09-19 15:51:00,
2013-09-19 08:57:00,45.1,14.0,30.06,ENE,60,0.0,0.0,28,0.00,,,0.00,VWS V14.01,2013-09-19 15:57:00,
2013-09-19 09:03:00,45.0,13.8,30.06,ENE,76,0.0,0.0,28,0.00,,,0.00,VWS V14.01,2013-09-19 16:03:00,
2013-09-19 09:08:00,45.1,14.0,30.06,ENE,76,0.0,0.0,28,0.00,,,0.00,VWS V14.01,2013-09-19 16:08:00,
2013-09-19 09:13:00,45.5,14.3,30.06,ESE,122,0.0,0.0,28,0.00,,,0.00,VWS V14.01,2013-09-19 16:13:00,
2013-09-19 09:20:00,45.9,14.6,30.06,SE,141,0.0,0.0,28,0.00,,,0.00,VWS V14.01,2013-09-19 16:20:00,
2013-09-19 09:25:00,45.9,14.6,30.06,South,172,0.0,0.0,28,0.00,,,0.00,VWS V14.01,2013-09-19 16:25:00,
2013-09-19 09:30:00,46.0,14.8,30.06,South,183,2.2,3.6,28,0.00,,,0.00,VWS V14.01,2013-09-19 16:30:00,
2013-09-19 09:36:00,46.0,14.8,30.06,SSW,207,0.0,0.0,28,0.00,,,0.00,VWS V14.01,2013-09-19 16:36:00,
2013-09-19 09:42:00,46.6,14.4,30.06,SSW,203,0.0,3.6,27,0.00,,,0.00,VWS V14.01,2013-09-19 16:42:00,
2013-09-19 09:47:00,46.9,14.7,30.06,SSW,208,2.7,3.6,27,0.00,,,0.00,VWS V14.01,2013-09-19 16:47:00,
2013-09-19 09:53:00,47.1,14.9,30.06,SSW,204,0.0,0.0,27,0.00,,,0.00,VWS V14.01,2013-09-19 16:53:00,
2013-09-19 09:58:00,47.5,15.2,30.06,SSW,204,0.0,0.0,27,0.00,,,0.00,VWS V14.01,2013-09-19 16:58:00,
2013-09-19 10:04:00,47.7,15.3,30.06,SSW,204,0.0,0.0,27,0.00,,,0.00,VWS V14.01,2013-09-19 17:04:00,
2013-09-19 10:10:00,48.2,15.8,30.06,South,190,0.0,0.0,27,0.00,,,0.00,VWS V14.01,2013-09-19 17:10:00,
2013-09-19 10:15:00,48.4,16.0,30.06,South,182,0.0,0.0,27,0.00,,,0.00,VWS V14.01,2013-09-19 17:15:00,
2013-09-19 10:20:00,48.7,16.3,30.06,ESE,116,0.0,0.0,27,0.00,,,0.00,VWS V14.01,2013-09-19 17:20:00,
2013-09-19 10:26:00,49.3,16.7,30.06,ESE,112,0.0,0.0,27,0.00,,,0.00,VWS V14.01,2013-09-19 17:26:00,
2013-09-19 10:31:00,49.8,17.2,30.06,ESE,104,0.0,0.0,27,0.00,,,0.00,VWS V14.01,2013-09-19 17:31:00,
2013-09-19 10:36:00,50.4,17.7,30.06,ESE,119,0.0,0.0,27,0.00,,,0.00,VWS V14.01,2013-09-19 17:36:00,
2013-09-19 10:43:00,50.9,18.1,30.06,SE,135,0.0,0.0,27,0.00,,,0.00,VWS V14.01,2013-09-19 17:43:00,
2013-09-19 10:48:00,51.4,18.6,30.06,ESE,107,3.1,4.0,27,0.00,,,0.00,VWS V14.01,2013-09-19 17:48:00,
2013-09-19 10:53:00,51.8,18.0,30.06,East,101,2.7,3.6,26,0.00,,,0.00,VWS V14.01,2013-09-19 17:53:00,
2013-09-19 10:58:00,52.5,18.6,30.06,East,94,3.6,4.0,26,0.00,,,0.00,VWS V14.01,2013-09-19 17:58:00,
2013-09-19 11:04:00,53.8,19.7,30.06,East,98,3.1,3.6,26,0.00,,,0.00,VWS V14.01,2013-09-19 18:04:00,
2013-09-19 11:10:00,54.5,20.3,30.03,ESE,102,0.0,5.8,26,0.00,,,0.00,VWS V14.01,2013-09-19 18:10:00,
2013-09-19 11:15:00,55.6,20.3,30.03,ESE,108,3.6,3.6,25,0.00,,,0.00,VWS V14.01,2013-09-19 18:15:00,
2013-09-19 11:20:00,56.1,20.8,30.03,East,101,6.3,6.3,25,0.00,,,0.00,VWS V14.01,2013-09-19 18:20:00,
2013-09-19 11:26:00,56.7,21.3,30.03,ENE,72,4.9,5.8,25,0.00,,,0.00,VWS V14.01,2013-09-19 18:26:00,
2013-09-19 11:32:00,58.6,22.0,30.03,East,99,3.6,3.6,24,0.00,,,0.00,VWS V14.01,2013-09-19 18:32:00,
2013-09-19 11:38:00,59.5,22.7,30.03,ENE,61,5.4,7.6,24,0.00,,,0.00,VWS V14.01,2013-09-19 18:38:00,
2013-09-19 11:44:00,60.3,23.4,30.03,NE,39,4.9,5.4,24,0.00,,,0.00,VWS V14.01,2013-09-19 18:44:00,
2013-09-19 11:49:00,60.6,23.6,30.03,ESE,122,3.1,5.4,24,0.00,,,0.00,VWS V14.01,2013-09-19 18:49:00,
2013-09-19 11:55:00,60.8,20.6,30.03,West,280,3.6,4.0,21,0.00,,,0.00,VWS V14.01,2013-09-19 18:55:00,
2013-09-19 12:01:00,61.3,21.1,30.03,East,101,4.9,4.9,21,0.00,,,0.00,VWS V14.01,2013-09-19 19:01:00,
2013-09-19 12:07:00,62.1,21.7,30.03,ENE,57,5.4,7.6,21,0.00,,,0.00,VWS V14.01,2013-09-19 19:07:00,
2013-09-19 12:13:00,62.2,21.9,30.03,East,92,3.6,4.0,21,0.00,,,0.00,VWS V14.01,2013-09-19 19:13:00,
2013-09-19 12:18:00,62.2,21.9,30.03,East,90,5.8,5.8,21,0.00,,,0.00,VWS V14.01,2013-09-19 19:18:00,
2013-09-19 12:23:00,63.1,22.6,30.03,ENE,74,3.6,3.6,21,0.00,,,0.00,VWS V14.01,2013-09-19 19:23:00,
2013-09-19 12:29:00,63.1,22.6,30.03,ESE,116,2.7,3.6,21,0.00,,,0.00,VWS V14.01,2013-09-19 19:29:00,
2013-09-19 12:34:00,63.1,22.6,30.03,ESE,111,2.2,4.0,21,0.00,,,0.00,VWS V14.01,2013-09-19 19:34:00,
2013-09-19 12:39:00,63.0,22.5,30.00,East,94,0.0,2.2,21,0.00,,,0.00,VWS V14.01,2013-09-19 19:39:00,
2013-09-19 12:46:00,63.1,22.6,30.00,East,93,4.9,4.9,21,0.00,,,0.00,VWS V14.01,2013-09-19 19:46:00,
2013-09-19 12:51:00,63.9,23.2,30.00,SSE,148,3.6,3.6,21,0.00,,,0.00,VWS V14.01,2013-09-19 19:51:00,
2013-09-19 12:56:00,64.0,23.3,30.00,SE,127,2.2,3.1,21,0.00,,,0.00,VWS V14.01,2013-09-19 19:56:00,
2013-09-19 13:02:00,64.6,22.6,30.00,East,99,4.9,7.6,20,0.00,,,0.00,VWS V14.01,2013-09-19 20:02:00,
2013-09-19 13:08:00,64.8,22.8,30.00,ENE,73,8.3,8.3,20,0.00,,,0.00,VWS V14.01,2013-09-19 20:08:00,
2013-09-19 13:13:00,65.3,23.2,30.00,North,4,0.0,5.4,20,0.00,,,0.00,VWS V14.01,2013-09-19 20:13:00,
2013-09-19 13:18:00,65.1,23.1,30.00,East,82,4.9,5.4,20,0.00,,,0.00,VWS V14.01,2013-09-19 20:18:00,
2013-09-19 13:24:00,65.5,23.4,30.00,ESE,104,3.6,5.4,20,0.00,,,0.00,VWS V14.01,2013-09-19 20:24:00,
2013-09-19 13:30:00,65.8,23.7,30.00,ENE,68,4.5,5.4,20,0.00,,,0.00,VWS V14.01,2013-09-19 20:30:00,
2013-09-19 13:35:00,66.0,23.8,30.00,ENE,73,4.0,4.0,20,0.00,,,0.00,VWS V14.01,2013-09-19 20:35:00,
2013-09-19 13:41:00,66.2,24.0,30.00,ENE,69,3.6,4.9,20,0.00,,,0.00,VWS V14.01,2013-09-19 20:41:00,
2013-09-19 13:46:00,66.6,20.4,30.00,ENE,78,4.0,6.3,17,0.00,,,0.00,VWS V14.01,2013-09-19 20:46:00,
2013-09-19 13:52:00,66.6,24.3,29.97,East,79,3.6,6.3,20,0.00,,,0.00,VWS V14.01,2013-09-19 20:52:00,
2013-09-19 13:57:00,66.9,20.7,29.97,East,92,5.8,7.6,17,0.00,,,0.00,VWS V14.01,2013-09-19 20:57:00,
2013-09-19 14:02:00,67.5,25.0,29.97,SE,133,2.2,3.6,20,0.00,,,0.00,VWS V14.01,2013-09-19 21:02:00,
2013-09-19 14:08:00,67.8,21.5,29.97,ESE,109,6.3,6.3,17,0.00,,,0.00,VWS V14.01,2013-09-19 21:08:00,
2013-09-19 14:13:00,67.8,21.5,29.97,East,87,5.4,7.6,17,0.00,,,0.00,VWS V14.01,2013-09-19 21:13:00,
2013-09-19 14:19:00,67.6,21.3,29.97,ENE,74,3.1,3.1,17,0.00,,,0.00,VWS V14.01,2013-09-19 21:19:00,
2013-09-19 14:24:00,67.3,21.0,29.97,East,98,6.3,6.3,17,0.00,,,0.00,VWS V14.01,2013-09-19 21:24:00,
2013-09-19 14:30:00,67.5,21.2,29.97,East,87,3.1,5.4,17,0.00,,,0.00,VWS V14.01,2013-09-19 21:30:00,
2013-09-19 14:35:00,67.8,21.5,29.97,East,80,4.0,5.4,17,0.00,,,0.00,VWS V14.01,2013-09-19 21:35:00,
2013-09-19 14:41:00,67.8,21.5,29.97,East,79,5.8,5.8,17,0.00,,,0.00,VWS V14.01,2013-09-19 21:41:00,
2013-09-19 14:48:00,67.5,25.0,29.97,East,79,4.9,5.8,20,0.00,,,0.00,VWS V14.01,2013-09-19 21:48:00,
2013-09-19 14:53:00,67.6,21.3,29.97,East,83,4.0,4.9,17,0.00,,,0.00,VWS V14.01,2013-09-19 21:53:00,
2013-09-19 14:59:00,68.0,21.6,29.97,East,87,4.9,4.9,17,0.00,,,0.00,VWS V14.01,2013-09-19 21:59:00,
2013-09-19 15:05:00,67.5,21.2,29.97,East,99,0.0,3.6,17,0.00,,,0.00,VWS V14.01,2013-09-19 22:05:00,
2013-09-19 15:10:00,67.8,21.5,29.97,East,99,3.6,4.9,17,0.00,,,0.00,VWS V14.01,2013-09-19 22:10:00,
2013-09-19 15:16:00,67.8,21.5,29.97,ENE,60,3.1,5.4,17,0.00,,,0.00,VWS V14.01,2013-09-19 22:16:00,
2013-09-19 15:21:00,68.2,21.7,29.97,East,81,4.0,5.4,17,0.00,,,0.00,VWS V14.01,2013-09-19 22:21:00,
2013-09-19 15:28:00,68.0,21.6,29.94,East,98,2.7,3.6,17,0.00,,,0.00,VWS V14.01,2013-09-19 22:28:00,
2013-09-19 15:34:00,68.2,21.7,29.94,ESE,105,4.0,5.8,17,0.00,,,0.00,VWS V14.01,2013-09-19 22:34:00,
2013-09-19 15:39:00,68.4,21.9,29.94,East,80,5.4,5.4,17,0.00,,,0.00,VWS V14.01,2013-09-19 22:39:00,
2013-09-19 15:45:00,68.2,21.7,29.94,East,89,2.7,4.0,17,0.00,,,0.00,VWS V14.01,2013-09-19 22:45:00,
2013-09-19 15:50:00,68.2,21.7,29.94,East,96,2.7,5.4,17,0.00,,,0.00,VWS V14.01,2013-09-19 22:50:00,
2013-09-19 15:56:00,68.0,25.5,29.94,East,93,4.0,5.8,20,0.00,,,0.00,VWS V14.01,2013-09-19 22:56:00,
2013-09-19 16:02:00,68.0,21.6,29.94,East,84,4.5,5.8,17,0.00,,,0.00,VWS V14.01,2013-09-19 23:02:00,
2013-09-19 16:07:00,68.2,21.7,29.94,East,96,2.7,5.8,17,0.00,,,0.00,VWS V14.01,2013-09-19 23:07:00,
2013-09-19 16:13:00,67.6,21.3,29.94,ESE,103,3.6,4.0,17,0.00,,,0.00,VWS V14.01,2013-09-19 23:13:00,
2013-09-19 16:18:00,67.8,21.5,29.94,ENE,63,4.9,4.9,17,0.00,,,0.00,VWS V14.01,2013-09-19 23:18:00,
2013-09-19 16:23:00,67.6,21.3,29.94,ENE,78,3.6,4.0,17,0.00,,,0.00,VWS V14.01,2013-09-19 23:23:00,
2013-09-19 16:29:00,67.6,21.3,29.94,ESE,104,4.9,4.9,17,0.00,,,0.00,VWS V14.01,2013-09-19 23:29:00,
2013-09-19 16:34:00,67.8,25.3,29.94,East,97,3.6,3.6,20,0.00,,,0.00,VWS V14.01,2013-09-19 23:34:00,
2013-09-19 16:40:00,67.6,21.3,29.91,East,94,4.0,4.0,17,0.00,,,0.00,VWS V14.01,2013-09-19 23:40:00,
2013-09-19 16:45:00,67.6,21.3,29.91,East,81,2.7,8.1,17,0.00,,,0.00,VWS V14.01,2013-09-19 23:45:00,
2013-09-19 16:51:00,67.8,21.5,29.91,East,80,0.0,3.6,17,0.00,,,0.00,VWS V14.01,2013-09-19 23:51:00,
2013-09-19 16:56:00,67.8,21.5,29.91,East,98,3.6,3.6,17,0.00,,,0.00,VWS V14.01,2013-09-19 23:56:00,
2013-09-19 17:01:00,67.6,21.3,29.91,ENE,78,3.1,5.4,17,0.00,,,0.00,VWS V14.01,2013-09-20 00:01:00,
2013-09-19 17:07:00,67.6,21.3,29.91,ENE,63,4.0,4.0,17,0.00,,,0.00,VWS V14.01,2013-09-20 00:07:00,
2013-09-19 17:12:00,67.5,21.2,29.91,NE,55,3.1,4.0,17,0.00,,,0.00,VWS V14.01,2013-09-20 00:12:00,
2013-09-19 17:18:00,67.3,21.0,29.91,ENE,75,3.6,3.6,17,0.00,,,0.00,VWS V14.01,2013-09-20 00:18:00,
2013-09-19 17:23:00,66.9,20.7,29.91,ENE,64,0.0,0.0,17,0.00,,,0.00,VWS V14.01,2013-09-20 00:23:00,
2013-09-19 17:28:00,65.7,23.5,29.91,NNE,29,5.4,5.4,20,0.00,,,0.00,VWS V14.01,2013-09-20 00:28:00,
2013-09-19 17:33:00,65.1,23.1,29.91,NE,43,0.0,0.0,20,0.00,,,0.00,VWS V14.01,2013-09-20 00:33:00,
2013-09-19 17:39:00,64.6,22.6,29.91,NNE,20,0.0,0.0,20,0.00,,,0.00,VWS V14.01,2013-09-20 00:39:00,
2013-09-19 17:44:00,64.4,22.5,29.91,NNW,342,0.0,0.0,20,0.00,,,0.00,VWS V14.01,2013-09-20 00:44:00,
2013-09-19 17:50:00,64.0,23.3,29.91,NW,325,0.0,0.0,21,0.00,,,0.00,VWS V14.01,2013-09-20 00:50:00,
2013-09-19 17:56:00,63.5,22.9,29.91,NNW,341,0.0,0.0,21,0.00,,,0.00,VWS V14.01,2013-09-20 00:56:00,
2013-09-19 18:02:00,63.0,22.5,29.91,NNW,346,0.0,0.0,21,0.00,,,0.00,VWS V14.01,2013-09-20 01:02:00,
2013-09-19 18:08:00,62.6,24.3,29.91,NNW,345,0.0,0.0,23,0.00,,,0.00,VWS V14.01,2013-09-20 01:08:00,
2013-09-19 18:14:00,62.2,25.0,29.91,NNW,345,0.0,0.0,24,0.00,,,0.00,VWS V14.01,2013-09-20 01:14:00,
2013-09-19 18:19:00,61.9,24.7,29.91,NNW,345,0.0,0.0,24,0.00,,,0.00,VWS V14.01,2013-09-20 01:19:00,
2013-09-19 18:25:00,61.5,24.4,29.91,NNW,345,0.0,0.0,24,0.00,,,0.00,VWS V14.01,2013-09-20 01:25:00,
2013-09-19 18:30:00,61.3,24.3,29.91,NNW,345,0.0,0.0,24,0.00,,,0.00,VWS V14.01,2013-09-20 01:30:00,
2013-09-19 18:35:00,61.2,24.1,29.91,NNW,345,0.0,0.0,24,0.00,,,0.00,VWS V14.01,2013-09-20 01:35:00,
2013-09-19 18:40:00,60.8,23.8,29.91,NNW,345,0.0,0.0,24,0.00,,,0.00,VWS V14.01,2013-09-20 01:40:00,
2013-09-19 18:46:00,60.4,23.5,29.91,NNW,345,0.0,0.0,24,0.00,,,0.00,VWS V14.01,2013-09-20 01:46:00,
2013-09-19 18:51:00,60.3,23.4,29.91,NNW,345,0.0,0.0,24,0.00,,,0.00,VWS V14.01,2013-09-20 01:51:00,
2013-09-19 18:57:00,60.1,23.2,29.91,NNW,345,0.0,0.0,24,0.00,,,0.00,VWS V14.01,2013-09-20 01:57:00,
2013-09-19 19:02:00,60.3,23.4,29.91,North,4,0.0,0.0,24,0.00,,,0.00,VWS V14.01,2013-09-20 02:02:00,
2013-09-19 19:07:00,60.6,21.6,29.91,North,350,0.0,0.0,22,0.00,,,0.00,VWS V14.01,2013-09-20 02:07:00,
2013-09-19 19:12:00,60.3,23.4,29.91,NE,42,0.0,0.0,24,0.00,,,0.00,VWS V14.01,2013-09-20 02:12:00,
2013-09-19 19:17:00,59.9,23.0,29.91,North,357,0.0,0.0,24,0.00,,,0.00,VWS V14.01,2013-09-20 02:17:00,
2013-09-19 19:22:00,59.7,22.9,29.91,North,353,0.0,0.0,24,0.00,,,0.00,VWS V14.01,2013-09-20 02:22:00,
2013-09-19 19:28:00,59.4,22.6,29.91,North,353,0.0,0.0,24,0.00,,,0.00,VWS V14.01,2013-09-20 02:28:00,
2013-09-19 19:33:00,59.4,22.6,29.91,NNW,343,0.0,0.0,24,0.00,,,0.00,VWS V14.01,2013-09-20 02:33:00,
2013-09-19 19:38:00,59.2,22.4,29.91,NNW,342,0.0,0.0,24,0.00,,,0.00,VWS V14.01,2013-09-20 02:38:00,
2013-09-19 19:44:00,58.8,22.1,29.91,North,357,2.7,2.7,24,0.00,,,0.00,VWS V14.01,2013-09-20 02:44:00,
2013-09-19 19:49:00,58.8,22.1,29.91,North,357,0.0,0.0,24,0.00,,,0.00,VWS V14.01,2013-09-20 02:49:00,
2013-09-19 19:54:00,58.5,22.8,29.91,North,357,0.0,0.0,25,0.00,,,0.00,VWS V14.01,2013-09-20 02:54:00,
2013-09-19 19:59:00,58.1,22.5,29.91,NE,51,0.0,2.7,25,0.00,,,0.00,VWS V14.01,2013-09-20 02:59:00,
2013-09-19 20:04:00,57.4,21.9,29.91,NE,48,0.0,2.2,25,0.00,,,0.00,VWS V14.01,2013-09-20 03:04:00,
2013-09-19 20:09:00,56.8,21.4,29.91,North,353,0.0,0.0,25,0.00,,,0.00,VWS V14.01,2013-09-20 03:09:00,
2013-09-19 20:15:00,56.7,21.3,29.91,North,353,0.0,0.0,25,0.00,,,0.00,VWS V14.01,2013-09-20 03:15:00,
2013-09-19 20:21:00,56.3,21.0,29.91,North,353,0.0,0.0,25,0.00,,,0.00,VWS V14.01,2013-09-20 03:21:00,
2013-09-19 20:26:00,56.3,21.0,29.91,North,353,0.0,0.0,25,0.00,,,0.00,VWS V14.01,2013-09-20 03:26:00,
2013-09-19 20:31:00,56.1,20.8,29.91,North,353,0.0,0.0,25,0.00,,,0.00,VWS V14.01,2013-09-20 03:31:00,
2013-09-19 20:37:00,55.9,20.6,29.91,North,353,0.0,0.0,25,0.00,,,0.00,VWS V14.01,2013-09-20 03:37:00,
2013-09-19 20:42:00,55.8,20.5,29.91,North,353,0.0,0.0,25,0.00,,,0.00,VWS V14.01,2013-09-20 03:42:00,
2013-09-19 20:48:00,55.6,20.3,29.91,North,353,0.0,0.0,25,0.00,,,0.00,VWS V14.01,2013-09-20 03:48:00,
2013-09-19 20:54:00,55.4,20.2,29.91,North,353,0.0,0.0,25,0.00,,,0.00,VWS V14.01,2013-09-20 03:54:00,
2013-09-19 20:59:00,55.0,20.8,29.91,North,353,0.0,0.0,26,0.00,,,0.00,VWS V14.01,2013-09-20 03:59:00,
2013-09-19 21:01:00,55.0,20.8,29.91,North,353,0.0,0.0,26,0.00,,,0.00,VWS V14.01,2013-09-20 04:01:00,
2013-09-19 21:02:00,54.9,20.6,29.91,North,353,0.0,0.0,26,0.00,,,0.00,VWS V14.01,2013-09-20 04:02:00,
2013-09-19 21:04:00,54.7,20.5,29.91,North,353,0.0,0.0,26,0.00,,,0.00,VWS V14.01,2013-09-20 04:04:00,
2013-09-19 21:05:00,54.7,20.5,29.91,North,353,0.0,0.0,26,0.00,,,0.00,VWS V14.01,2013-09-20 04:05:00,
2013-09-19 21:10:00,54.5,20.3,29.91,North,353,0.0,0.0,26,0.00,,,0.00,VWS V14.01,2013-09-20 04:10:00,
2013-09-19 21:16:00,54.3,20.2,29.91,North,353,0.0,0.0,26,0.00,,,0.00,VWS V14.01,2013-09-20 04:16:00,
2013-09-19 21:22:00,54.1,20.0,29.91,North,353,0.0,0.0,26,0.00,,,0.00,VWS V14.01,2013-09-20 04:22:00,
2013-09-19 21:27:00,54.0,19.9,29.91,North,353,0.0,0.0,26,0.00,,,0.00,VWS V14.01,2013-09-20 04:27:00,
2013-09-19 21:32:00,53.8,19.7,29.91,North,353,0.0,0.0,26,0.00,,,0.00,VWS V14.01,2013-09-20 04:32:00,
2013-09-19 21:38:00,53.6,19.6,29.91,North,353,0.0,0.0,26,0.00,,,0.00,VWS V14.01,2013-09-20 04:38:00,
2013-09-19 21:44:00,53.4,19.4,29.91,North,353,0.0,0.0,26,0.00,,,0.00,VWS V14.01,2013-09-20 04:44:00,
2013-09-19 21:50:00,53.2,19.3,29.91,North,353,0.0,0.0,26,0.00,,,0.00,VWS V14.01,2013-09-20 04:50:00,
2013-09-19 21:55:00,53.1,19.1,29.91,North,353,0.0,0.0,26,0.00,,,0.00,VWS V14.01,2013-09-20 04:55:00,
2013-09-19 22:00:00,52.9,19.0,29.91,North,353,0.0,0.0,26,0.00,,,0.00,VWS V14.01,2013-09-20 05:00:00,
2013-09-19 22:05:00,52.7,18.8,29.91,North,353,0.0,0.0,26,0.00,,,0.00,VWS V14.01,2013-09-20 05:05:00,
2013-09-19 22:10:00,52.5,18.6,29.91,North,353,0.0,0.0,26,0.00,,,0.00,VWS V14.01,2013-09-20 05:10:00,
2013-09-19 22:16:00,52.3,18.5,29.91,North,353,0.0,0.0,26,0.00,,,0.00,VWS V14.01,2013-09-20 05:16:00,
2013-09-19 22:22:00,52.0,18.2,29.91,North,353,0.0,0.0,26,0.00,,,0.00,VWS V14.01,2013-09-20 05:22:00,
2013-09-19 22:28:00,51.8,18.0,29.91,North,353,0.0,0.0,26,0.00,,,0.00,VWS V14.01,2013-09-20 05:28:00,
2013-09-19 22:34:00,51.8,18.0,29.91,North,353,0.0,0.0,26,0.00,,,0.00,VWS V14.01,2013-09-20 05:34:00,
2013-09-19 22:39:00,51.4,18.6,29.91,North,353,0.0,0.0,27,0.00,,,0.00,VWS V14.01,2013-09-20 05:39:00,
2013-09-19 22:45:00,51.3,18.4,29.91,North,353,0.0,0.0,27,0.00,,,0.00,VWS V14.01,2013-09-20 05:45:00,
2013-09-19 22:51:00,50.9,18.1,29.91,North,353,0.0,0.0,27,0.00,,,0.00,VWS V14.01,2013-09-20 05:51:00,
2013-09-19 22:57:00,50.7,18.0,29.91,North,353,0.0,0.0,27,0.00,,,0.00,VWS V14.01,2013-09-20 05:57:00,
2013-09-19 23:02:00,50.5,17.8,29.91,North,353,0.0,0.0,27,0.00,,,0.00,VWS V14.01,2013-09-20 06:02:00,
2013-09-19 23:07:00,50.4,17.7,29.91,North,353,0.0,0.0,27,0.00,,,0.00,VWS V14.01,2013-09-20 06:07:00,
2013-09-19 23:13:00,50.2,17.5,29.91,North,353,0.0,0.0,27,0.00,,,0.00,VWS V14.01,2013-09-20 06:13:00,
2013-09-19 23:19:00,50.2,17.5,29.91,North,353,0.0,0.0,27,0.00,,,0.00,VWS V14.01,2013-09-20 06:19:00,
2013-09-19 23:25:00,50.0,17.4,29.91,North,353,0.0,0.0,27,0.00,,,0.00,VWS V14.01,2013-09-20 06:25:00,
2013-09-19 23:30:00,49.8,17.2,29.91,North,353,0.0,0.0,27,0.00,,,0.00,VWS V14.01,2013-09-20 06:30:00,
2013-09-19 23:35:00,49.6,17.0,29.91,North,353,0.0,0.0,27,0.00,,,0.00,VWS V14.01,2013-09-20 06:35:00,
2013-09-19 23:40:00,49.6,17.0,29.91,North,353,0.0,0.0,27,0.00,,,0.00,VWS V14.01,2013-09-20 06:40:00,
2013-09-19 23:46:00,49.3,16.7,29.91,North,353,0.0,0.0,27,0.00,,,0.00,VWS V14.01,2013-09-20 06:46:00,
2013-09-19 23:51:00,49.3,16.7,29.91,North,353,0.0,0.0,27,0.00,,,0.00,VWS V14.01,2013-09-20 06:51:00,
2013-09-19 23:56:00,49.1,16.6,29.91,North,353,0.0,0.0,27,0.00,,,0.00,VWS V14.01,2013-09-20 06:56:00,